STARLINK-34684, 64862

Orbit data source: Space-Track

STARLINK-34684, 64862 is a payload satellite owned by SpaceX/Seattle (US) in SSO that was launched on Sat, 19 Jul 2025 UTC via an FALCON 9 launch vehicle from the Air Force Western Test Range (AFWTR). Payload-class satellites include a variety of spacecraft equipped with specific instruments for various scientific and technological missions. These include communications satellites like Starlink; space stations such as the ISS; scientific satellites like the Hubble; Earth observation satellites from companies like Planet Labs, Umbra, and HawkEye 360; GPS; miniature CubeSats for education and research; and military/defense satellites.

Loading next visibility...
Identifier
64862, 2025-152W
Orbit
SSO
Country
Flag of USUS
Related business
Manufacturer
SpaceX/Seattle
Mission
Operational Commercial Communications
Bus & Motor
STARLINK V2MO, Unknown motor
Mass
575 kg wet, ~530 kg dry
Launch date (UTC)
2025-07-19 (11 months ago)
Launch vehicle
FALCON 9
Launch site
Air Force Western Test Range (AFWTR)
Object type
Payload
Rocket body
Debris
Shape & HBR
Box + 2 Pan, 17.7 m
Radar Cross Section
36.964 m², Large (>1 m²)

Expand to show TLE details & history
Last TLE update: 13 hours ago

TLE from 13 hours ago
0 STARLINK-34684
1 64862U 25152W   26171.32644664  .00003852  00000-0  27071-3 0  9991
2 64862  97.3399  25.6190 0002019  91.0578 269.0881 15.05658765 50864
Epoch: 2026-06-20T07:50Z
TLE epoch observation values (Epoch: 2026-06-20T07:50:04.989Z)
Latitude
-0.00002°
Longitude
-0.44446°
Altitude
552.58 km
Speed
7.585 km/s
True Right ascension
01h 42m 28s
True Declination
0° 00' 00"
Sunlit
Object was in daylight at epoch
Visualization orbit readout
Latitude
Unknown
Longitude
Unknown
Altitude
Unknown
Speed
Unknown
Apparent Right ascension
Unknown
Apparent Declination
Unknown
Sunlit
N/A
Visualization observer readout
Local Sidereal Time
07:19:37
Azimuth
Unknown
Elevation
Unknown
Doppler factor
Unknown
Orbital elements
Apogee altitude
547.865 km
Perigee altitude
545.068 km
Semi-major axis
6,924.603 km
Eccentricity
0.0002
Inclination
97.3399°
RAAN
25.619°
Arg. of periapsis
91.0578°
True anomaly
269.06497°
Mean anomaly
269.0881°
Eccentric anomaly
269.07653°
Mean motion
3.76661 °/min
Orbital period
95.58 mins
BSTAR
0.00027071
Loading maneuver chart data...
Computing Atmospheric mass density...
Loading historical data...
Loading historical data...
Loading historical data...
Loading historical data...
Loading historical data...
Loading historical data...
Loading historical data...

Documentation

Showing up to 5 results
|